Tracking 19636 objects as of 25-May-2019
HD Live streaming from Space Station
objects crossing your sky now

AMC-15

Track AMC-15 now!
AMC-15 is classified as:


NORAD ID: 28446
Int'l Code: 2004-041A
Perigee: 35,781.3 km
Apogee: 35,806.3 km
Inclination: 0.1 °
Period: 1,436.1 minutes
Semi major axis: 42164 km
RCS: 20.7825 m2 (large)
Launch date: October 14, 2004
Source: SOCIETE EUROPEENNE DES SATELLITES (SES)
Launch site: TYURATAM MISSILE AND SPACE COMPLEX (TTMTR)

Hybrid Ku-Ka-band satellite; CONUS, Alaska, Hawaii.
aabbcc
Your satellite tracking list
Your tracking list is empty




NASA's NSSDC Master Catalog

Two Line Element Set (TLE):
1 28446U 04041A   19144.13671587 -.00000095  00000-0  00000+0 0  9994
2 28446   0.0611  87.4121 0002965 342.2498 115.9410  1.00271447 53488
Source of the keplerian elements: AFSPC